Helicity
70 59 47 53 68 70 77 80 81 80 83 81 81 73 64 62 63 68 76 85 91 104 105 112 108 114 118 109 104 110 114 116 89 86 82 74 70 81 81 85 105 121 123
96 38 32 46 63 65 70 71 69 81 81 90 85 90 85 72 68 80 89 104 94 107 113 118 123 123 132 135 107 93 111 118 103 84 79 89 88 86 96 100 111 118 117
206 126 59 45 63 63 57 75 89 81 86 86 90 101 120 108 93 90 100 106 96 127 124 126 133 145 143 152 142 114 94 105 115 122 106 108 120 91 99 105 105 109 116
186 94 121 65 56 60 79 68 81 102 104 91 75 79 87 100 78 98 105 125 101 160 164 136 140 159 158 155 144 127 114 97 110 109 119 127 126 126 106 100 104 106 113
23 124 152 64 59 91 146 121 91 92 112 107 83 83 78 83 102 128 128 138 160 190 183 146 169 165 155 156 143 133 127 117 110 108 97 106 113 120 125 127 116 100 120
36 37 95 81 71 101 106 139 113 108 95 126 123 121 103 124 143 150 151 144 179 198 158 160 173 165 163 154 149 139 133 125 117 109 104 103 105 109 110 126 124 131 107
121 62 -19 84 58 151 143 153 150 133 131 133 184 186 129 149 157 165 170 165 185 164 167 174 166 165 164 154 132 128 126 118 110 105 112 115 122 117 116 117 114 120 116
81 153 109 130 80 140 157 196 153 154 151 173 283 272 230 196 169 148 166 183 167 180 175 192 177 166 158 141 127 125 122 114 112 118 122 112 107 98 102 109 120 117 115
104 116 126 108 174 114 163 180 206 208 226 285 283 356 333 276 198 176 169 192 215 227 208 196 177 162 151 136 127 124 122 117 119 117 106 100 101 105 126 128 135 137 138
95 109 103 123 134 148 129 218 277 348 345 479 374 386 367 315 253 213 217 227 243 210 199 183 172 168 159 142 132 128 124 114 108 104 103 106 113 118 126 126 122 123 122
73 52 70 101 142 147 170 207 340 391 309 413 430 435 433 361 275 269 279 281 237 198 190 181 179 172 158 139 128 123 115 106 102 96 104 115 120 121 123 127 122 133 139
100 106 80 68 91 137 185 222 284 293 418 447 511 483 434 359 278 307 306 266 234 209 198 186 182 170 154 141 128 115 100 95 95 110 112 118 121 116 127 135 130 142 139
25 49 63 91 88 86 130 192 268 329 462 535 507 453 368 310 301 320 294 257 239 223 206 189 176 160 147 127 108 95 90 101 112 115 114 116 118 124 133 130 129 138 145
23 36 40 55 79 104 143 183 244 374 441 442 431 387 328 310 291 298 277 247 223 216 202 183 167 149 122 102 94 97 101 101 106 105 106 110 109 117 123 125 122 127 131
38 46 34 54 73 111 148 222 323 370 387 388 349 314 313 286 314 305 267 242 221 204 184 169 149 119 101 97 100 97 101 99 99 103 103 101 110 100 93 117 113 126 141
44 55 48 55 80 108 156 224 265 281 278 286 290 274 292 320 297 262 236 223 212 191 171 149 127 109 102 117 110 100 94 93 97 106 107 98 89 81 86 86 93 112 141
61 74 85 92 95 109 139 171 202 223 236 266 288 298 293 277 253 240 229 217 194 172 152 132 109 110 108 110 101 91 87 93 94 95 92 97 110 101 112 112 105 95 84
69 60 93 131 152 163 179 212 225 239 253 270 280 274 266 268 253 237 221 204 176 146 125 116 104 104 100 93 94 93 85 94 84 88 94 98 100 107 111 117 117 114 120
32 35 77 125 155 158 168 180 204 225 253 275 276 263 257 259 239 223 206 180 142 128 101 91 97 97 95 97 95 93 90 91 91 96 94 102 108 102 105 126 139 128 123
11 45 84 131 161 183 190 219 248 271 302 303 259 247 233 221 220 219 176 138 111 100 104 105 93 96 89 84 90 87 91 86 99 102 109 109 117 127 135 151 147 143 121
24 69 145 162 166 198 213 231 250 267 281 279 277 261 245 254 235 187 136 124 115 119 110 99 89 81 80 84 80 75 85 98 116 123 142 160 142 122 112 104 133 145 130
46 97 161 198 206 207 244 270 262 300 309 328 326 313 266 243 195 147 147 123 114 107 97 90 87 87 78 69 67 70 85 112 140 143 160 147 110 92 93 110 106 90 80
74 111 162 222 220 224 251 311 330 342 368 373 333 291 264 230 165 137 123 111 102 101 103 91 78 76 80 84 86 98 120 138 159 149 127 70 74 79 97 94 75 67 97
98 116 167 205 235 238 239 284 319 352 389 365 326 291 283 195 142 124 97 105 105 94 79 77 83 93 97 110 123 136 154 151 145 119 113 97 92 98 88 76 83 99 104
138 155 163 210 247 270 287 300 381 397 402 361 346 344 196 161 136 109 107 103 85 76 94 94 93 105 113 123 112 101 122 125 117 107 118 133 134 95 82 87 92 96 92
209 216 218 257 317 360 382 417 435 412 436 480 438 231 169 153 136 117 116 75 78 79 65 73 94 111 94 87 83 78 128 131 96 130 133 122 97 84 90 92 92 87 73
Wind_Speed
53 57 56 59 50 49 44 39 35 30 26 25 21 20 17 18 17 16 13 14 16 17 19 21 23 26 27 27 28 29 30 32 31 30 32 31 30 32 33 33 33 37 42
54 49 54 57 56 51 46 41 40 33 30 27 26 26 17 19 20 18 16 17 17 17 19 20 22 25 27 29 29 29 31 33 33 34 34 36 35 33 35 33 33 37 43
73 52 53 54 54 53 50 46 42 40 36 31 27 23 20 20 20 17 17 18 18 19 20 21 24 26 28 30 31 31 32 32 35 37 38 41 45 39 37 36 36 39 46
85 61 58 55 54 57 53 51 49 43 37 30 28 29 27 26 25 18 20 20 20 19 22 23 26 27 28 29 31 33 34 35 36 37 39 40 42 49 50 41 39 42 51
80 75 68 66 55 51 50 50 47 45 37 32 32 31 29 30 25 23 21 21 20 22 23 24 27 28 30 31 31 33 36 37 37 38 39 41 43 44 48 55 50 51 53
78 86 76 64 63 54 52 46 45 43 39 35 32 29 28 28 25 25 22 24 26 22 24 27 27 28 29 31 31 32 35 36 37 39 40 43 47 49 52 58 61 66 63
77 94 81 65 61 56 53 47 45 42 38 33 31 29 32 30 28 26 26 27 24 21 26 27 29 30 29 29 30 33 34 36 38 40 43 45 48 52 55 60 67 70 71
71 69 92 87 73 65 51 46 41 45 42 38 33 32 30 33 30 27 25 27 25 26 26 29 29 28 27 29 30 33 35 37 40 42 46 49 51 53 56 62 70 79 77
52 58 63 75 75 83 74 63 52 48 44 54 38 36 25 32 38 29 29 28 29 27 22 24 27 28 29 30 32 34 37 39 43 47 50 52 54 57 59 60 63 73 86
54 53 49 53 53 57 54 59 60 55 53 42 38 30 21 25 21 20 24 25 27 23 23 24 25 27 29 30 32 35 38 42 47 50 53 56 58 60 60 61 63 65 74
54 53 50 49 50 48 46 48 46 45 41 39 31 27 22 21 20 20 24 23 23 22 22 22 24 26 28 31 34 37 42 47 50 53 57 60 60 61 61 62 64 67 69
52 53 50 42 42 45 44 44 43 42 39 36 30 26 21 20 20 21 22 20 20 20 21 22 24 26 29 33 37 43 46 50 54 57 59 60 60 62 63 64 66 67 67
53 49 45 44 40 38 40 40 38 37 34 32 29 26 25 23 23 22 20 18 18 19 20 23 25 28 32 37 41 45 49 53 55 57 59 60 62 65 64 65 67 66 66
57 50 46 40 35 33 31 33 33 31 29 29 28 26 26 24 22 19 17 16 16 18 20 23 27 32 36 39 44 49 52 54 55 56 58 60 63 65 65 65 65 65 71
55 49 47 41 35 31 27 26 28 27 26 26 26 24 23 20 17 15 14 14 16 18 21 26 32 35 39 43 48 51 54 55 57 58 60 60 60 62 61 64 68 71 74
49 43 41 41 36 31 28 25 25 25 25 26 24 21 19 17 14 13 13 14 17 21 25 30 34 39 43 47 51 53 55 57 59 61 60 60 60 60 62 64 66 68 74
52 45 40 34 29 30 28 27 26 24 25 24 21 18 15 13 12 11 13 17 20 23 28 33 37 42 46 49 53 55 57 57 57 59 61 62 62 64 67 68 69 68 70
55 50 41 32 26 23 23 21 20 20 19 18 16 14 13 12 13 14 16 18 21 27 31 36 40 44 48 52 56 56 56 55 57 59 62 66 67 67 70 74 76 76 73
54 44 30 30 28 24 22 20 20 19 18 19 18 17 15 14 14 14 16 20 25 30 33 37 42 47 51 52 54 56 57 59 62 62 62 64 69 69 73 77 79 79 76
45 34 28 24 22 22 21 22 22 22 22 20 17 14 13 12 12 13 18 25 25 30 35 40 44 47 49 51 54 56 59 64 65 66 66 66 68 73 76 78 80 81 77
46 34 24 23 22 21 21 22 22 23 19 16 14 13 12 12 13 17 20 22 27 32 37 42 45 47 48 53 55 56 60 64 68 70 71 70 72 76 77 76 76 73 72
44 35 30 29 27 23 22 23 24 19 17 15 13 12 11 11 11 15 19 24 29 37 42 46 49 48 49 50 53 57 61 66 69 72 72 73 75 77 79 75 72 76 79
44 35 29 24 21 19 19 20 18 15 14 12 10 8 7 9 14 17 24 29 34 40 45 47 50 51 52 54 56 62 64 66 70 72 75 76 76 76 71 69 73 72 67
41 34 28 26 25 21 20 18 16 15 15 14 12 9 11 17 16 21 26 32 37 41 44 47 50 54 57 60 62 65 66 68 71 73 74 72 73 69 66 66 63 59 57
41 35 31 28 25 21 19 17 16 16 15 14 12 13 17 17 20 24 29 34 36 39 44 48 53 59 64 64 67 70 72 71 74 78 74 69 66 67 64 59 55 53 52
41 35 30 25 23 21 19 16 16 16 15 13 14 18 18 19 22 26 32 33 37 40 44 50 56 60 63 67 69 70 70 71 72 72 66 66 63 62 60 57 55 52 51
Wind_Direction
252 242 240 237 240 239 238 239 240 242 245 252 259 273 283 295 309 324 341 2 1 357 359 2 2 354 354 355 357 357 358 355 354 354 351 351 354 353 352 353 354 352 350
254 242 241 239 238 240 240 239 241 241 244 252 261 274 280 293 300 313 330 335 345 349 349 353 351 350 351 350 347 347 348 349 348 342 342 338 341 344 347 348 346 345 344
251 254 246 241 240 241 241 240 240 242 245 251 259 271 283 292 296 307 320 330 331 337 340 344 337 341 344 344 345 345 341 340 343 343 337 333 330 337 340 340 339 337 336
248 252 250 244 241 241 242 242 242 241 243 246 255 262 269 277 289 297 309 317 323 330 330 332 329 336 340 342 342 341 338 336 334 339 341 341 337 329 328 335 333 332 331
246 249 248 245 243 246 243 242 242 243 242 244 254 262 271 280 291 296 302 312 326 324 322 323 325 332 334 336 338 339 336 336 336 336 337 337 336 335 329 324 327 328 328
242 247 250 250 250 252 248 242 239 240 241 243 251 260 266 276 285 287 295 301 306 322 318 318 324 329 333 335 338 339 337 337 338 338 337 334 331 329 327 323 323 322 324
250 240 244 251 251 250 247 244 237 237 237 240 251 256 265 274 278 281 289 291 303 311 309 315 318 323 330 335 337 335 337 337 336 336 335 334 331 329 327 324 321 319 321
257 260 246 249 252 251 245 240 229 238 238 242 252 253 259 272 280 280 288 293 297 302 305 313 317 325 334 334 335 335 336 336 335 334 332 329 329 329 327 324 321 318 318
278 268 263 255 254 248 247 249 239 240 235 251 253 258 265 267 272 280 285 292 297 304 313 317 318 324 327 329 332 332 333 333 332 329 328 328 328 327 326 325 323 320 317
284 284 280 267 260 256 252 253 248 249 249 247 253 257 258 270 275 277 287 290 298 303 308 314 320 325 329 331 332 332 332 329 328 328 328 327 326 326 325 324 323 321 317
289 287 284 279 265 259 252 247 245 243 243 248 243 250 257 264 271 278 288 294 297 300 307 315 322 326 329 331 331 329 328 326 327 328 326 325 326 325 325 324 323 321 319
296 292 285 282 272 261 253 248 244 240 240 241 243 248 253 262 267 280 288 292 295 304 311 317 322 327 329 329 327 326 327 327 326 326 326 326 327 325 325 324 322 321 321
295 293 290 281 278 268 258 252 244 241 237 234 236 244 252 260 271 282 285 290 297 306 314 320 324 327 327 326 326 327 327 327 327 327 327 326 326 325 325 324 323 322 322
288 289 288 285 280 273 262 250 245 236 230 232 238 243 253 264 272 279 284 292 301 308 316 322 324 324 325 327 327 327 327 327 328 328 327 326 326 325 325 325 324 324 322
286 284 282 282 279 270 263 253 242 233 230 233 240 248 258 264 271 275 284 296 306 313 319 320 322 325 327 327 327 327 327 327 327 327 327 327 327 326 325 324 323 322 321
284 282 283 280 274 268 258 249 241 236 237 240 245 250 256 260 264 273 285 298 308 313 317 321 323 324 326 328 328 328 327 327 327 327 328 328 327 327 325 324 322 321 319
284 282 280 278 276 268 260 251 247 245 246 246 247 246 243 249 261 275 289 298 306 315 319 321 324 325 327 329 329 328 327 327 328 328 328 328 328 327 326 324 323 321 318
289 282 276 273 271 269 263 256 248 243 240 238 234 236 241 253 267 280 292 304 312 316 320 323 325 327 328 329 329 330 330 329 329 328 328 327 326 326 325 323 322 321 320
298 292 280 270 266 260 256 250 246 243 239 239 241 244 248 256 268 282 296 310 315 319 322 325 326 327 328 331 332 332 331 329 328 329 329 328 326 326 325 323 321 321 320
312 306 288 275 264 258 252 248 247 245 243 241 239 241 246 254 268 291 306 314 319 322 325 326 328 330 331 333 334 333 332 329 330 330 329 329 327 327 327 324 323 321 321
310 304 288 274 264 258 251 250 247 245 240 237 238 245 255 267 287 305 312 318 322 326 327 328 330 331 333 333 334 335 333 331 330 329 329 330 329 328 326 325 323 322 324
310 302 287 274 267 256 248 249 247 244 234 230 236 246 262 285 303 314 320 324 325 324 326 327 329 332 334 336 336 335 333 332 330 329 330 329 329 327 327 325 324 323 323
304 300 288 274 263 246 241 238 237 215 209 209 218 232 266 296 312 315 317 321 324 325 326 328 330 332 334 335 336 335 334 334 332 330 329 328 328 328 329 328 327 326 327
299 297 287 271 261 250 246 241 218 207 203 223 238 249 278 298 309 316 319 322 324 326 328 330 331 332 334 334 335 335 335 334 333 333 331 330 330 331 330 332 333 334 333
293 290 282 269 257 247 242 230 212 201 221 235 250 269 290 295 306 315 320 323 327 329 330 331 331 331 331 333 333 332 331 331 332 332 332 333 334 334 336 337 338 339 338
286 284 280 268 253 244 237 221 207 201 220 239 265 280 288 297 308 315 321 326 328 331 330 330 330 330 330 331 331 331 332 333 333 333 334 334 337 337 339 340 340 341 340